Weather History for Pompano Beach, FL

Change the Weather History Date:

Friday, July 20, 2012

  Actual Average Record
Temperature  
Mean Temperature 84 °F -  
Max Temperature 88 °F 91 °F 102 °F (2013)
Min Temperature 81 °F 74 °F 66 °F (1977)
Cooling Degree Days 20    
Growing Degree Days 34 (Base 50)    
Moisture  
Dew Point 76 °F    
Average Humidity 76    
Maximum Humidity 85    
Minimum Humidity 65    
Precipitation  
Precipitation 0.00 in - - ()
Sea Level Pressure  
Sea Level Pressure 30.11 in    
Wind  
Wind Speed 9 mph (East)    
Max Wind Speed 16 mph    
Max Gust Speed -    
Visibility 10 miles    
Events      
Averages and records for this station are not official NWS values.
T = Trace of Precipitation, MM = Missing Value Source: NWS Daily Summary

Daily Weather History Graph

Daily Weather History Graph

Search for Another Location

Airport:

Trip Planner

Search our weather history database for the weather conditions in past years. The results will help you decide how hot, cold, wet, or windy it might be!

Date:

Astronomy

Jul. 20, 2012 Rise Set
Actual Time 6:40 AM EDT 8:13 PM EDT
Civil Twilight 6:14 AM EDT 8:38 PM EDT
Nautical Twilight 5:44 AM EDT 9:08 PM EDT
Astronomical Twilight 5:12 AM EDT 9:40 PM EDT
Moon 8:01 AM EDT (7/20) 9:09 PM EDT (7/20)
Length of Visible Light 14h 23m
Length of Day
13h 33m
New Moon, 2% of the Moon is Illuminated
Jul 20
New Moon
Jul 26
First Quarter
Aug 1
Full
Aug 9
Last Quarter
Aug 17
New

Hourly Weather History & Observations

Time (EDT) Temp. Heat Index Dew Point Humidity Pressure Visibility Wind Dir Wind Speed Gust Speed Precip Events Conditions
12:44 AM 82.4 °F 89.5 °F 75.2 °F 79% 30.15 in 10.0 mi ESE 9.2 mph - N/A   Mostly Cloudy
12:53 AM 82.0 °F 89.4 °F 75.9 °F 82% 30.15 in 10.0 mi ESE 5.8 mph - N/A   Mostly Cloudy
1:10 AM 82.4 °F 89.5 °F 75.2 °F 79% 30.14 in 10.0 mi East 6.9 mph - N/A   Partly Cloudy
1:53 AM 82.0 °F 89.4 °F 75.9 °F 82% 30.12 in 10.0 mi East 10.4 mph - N/A   Clear
2:53 AM 82.0 °F 89.4 °F 75.9 °F 82% 30.11 in 10.0 mi East 5.8 mph - N/A   Partly Cloudy
3:53 AM 81.0 °F 87.3 °F 75.9 °F 85% 30.11 in 10.0 mi East 9.2 mph - N/A   Partly Cloudy
4:53 AM 82.0 °F 88.6 °F 75.0 °F 79% 30.11 in 10.0 mi ESE 9.2 mph - N/A   Scattered Clouds
5:53 AM 81.0 °F 87.3 °F 75.9 °F 85% 30.11 in 10.0 mi East 8.1 mph - N/A   Clear
6:53 AM 82.0 °F 89.4 °F 75.9 °F 82% 30.12 in 10.0 mi East 9.2 mph - N/A   Clear
7:53 AM 82.9 °F 90.8 °F 75.9 °F 79% 30.12 in 10.0 mi ESE 8.1 mph - N/A   Clear
8:53 AM 84.0 °F 91.9 °F 75.0 °F 74% 30.13 in 10.0 mi East 11.5 mph - N/A   Clear
9:53 AM 84.9 °F 94.1 °F 75.9 °F 74% 30.13 in 10.0 mi East 11.5 mph - N/A   Partly Cloudy
10:53 AM 86.0 °F 95.1 °F 75.0 °F 70% 30.14 in 10.0 mi East 11.5 mph - N/A   Scattered Clouds
11:53 AM 87.1 °F 97.3 °F 75.9 °F 69% 30.14 in 10.0 mi East 16.1 mph - N/A   Scattered Clouds
12:53 PM 88.0 °F 98.5 °F 75.9 °F 67% 30.13 in 10.0 mi East 11.5 mph - N/A   Scattered Clouds
1:53 PM 87.1 °F 97.3 °F 75.9 °F 69% 30.12 in 10.0 mi ESE 12.7 mph - N/A   Scattered Clouds
2:53 PM 88.0 °F 97.5 °F 75.0 °F 65% 30.11 in 10.0 mi ESE 10.4 mph - N/A   Clear
3:53 PM 88.0 °F 98.5 °F 75.9 °F 67% 30.10 in 10.0 mi ESE 12.7 mph - N/A   Scattered Clouds
4:53 PM 87.1 °F 97.3 °F 75.9 °F 69% 30.08 in 10.0 mi East 12.7 mph - N/A   Scattered Clouds
5:53 PM 87.1 °F 97.3 °F 75.9 °F 69% 30.06 in 10.0 mi East 9.2 mph - N/A   Clear
6:53 PM 84.9 °F 94.1 °F 75.9 °F 74% 30.06 in 10.0 mi East 10.4 mph - N/A   Clear
7:53 PM 84.0 °F 92.6 °F 75.9 °F 76% 30.06 in 10.0 mi ESE 10.4 mph - N/A   Partly Cloudy
8:53 PM 82.9 °F 90.8 °F 75.9 °F 79% 30.08 in 10.0 mi East 9.2 mph - N/A   Clear
9:53 PM 82.9 °F 90.8 °F 75.9 °F 79% 30.10 in 10.0 mi East 9.2 mph - N/A   Clear
10:53 PM 82.9 °F 90.8 °F 75.9 °F 79% 30.11 in 10.0 mi East 9.2 mph - N/A   Clear
11:53 PM 82.9 °F 90.8 °F 75.9 °F 79% 30.11 in 10.0 mi ESE 10.4 mph - N/A   Clear